Theta_e
296 296 296 296 296 297 297 298 298 298 298 299 299 300 301 302 303 300 297 299 297 292 293 299 300 295 295 292 285 288 287 288 286 283 280 279 278 279 278 281 277 275 274 273 275 270 270 290 289 281 284 288 287 286
296 296 297 297 297 298 298 297 298 299 299 299 299 300 301 302 303 302 295 299 302 292 291 300 300 302 301 298 291 289 289 288 287 281 280 281 279 279 279 276 284 275 277 276 278 278 288 291 289 291 291 286 286 286
296 297 297 298 298 298 298 299 299 299 299 299 300 300 301 302 303 302 297 299 298 290 289 293 294 299 302 300 299 289 289 293 289 292 287 285 281 283 275 277 280 284 288 278 281 286 288 289 291 290 290 287 288 290
297 297 296 296 297 298 298 298 299 299 299 300 300 300 301 302 303 302 297 300 297 293 285 289 299 296 300 301 299 297 295 295 294 292 286 282 280 285 280 283 281 283 287 283 282 287 290 290 289 288 288 289 289 289
296 296 297 297 297 298 298 298 298 299 299 300 301 301 302 302 303 301 299 299 302 293 286 287 295 297 300 299 297 296 295 292 288 284 281 280 282 283 282 283 280 287 284 281 278 286 285 286 287 289 287 287 289 288
297 296 298 299 299 297 297 297 298 299 300 300 301 301 302 302 302 299 291 299 303 300 289 283 293 294 296 296 295 295 294 290 288 285 282 284 288 284 278 276 286 289 291 291 288 292 290 290 291 292 290 288 286 284
299 302 303 302 302 301 299 298 298 299 300 301 301 302 302 302 299 292 290 296 302 300 288 283 285 292 295 293 291 291 291 288 288 286 283 282 281 285 279 278 286 289 291 292 292 291 288 290 287 291 286 285 285 283
300 302 302 302 302 302 300 299 299 300 301 301 301 302 302 302 300 294 297 301 301 295 292 283 283 285 292 286 285 289 286 288 287 284 285 282 284 284 279 286 288 290 290 290 289 290 288 288 287 286 285 284 282 280
300 300 301 301 301 300 299 299 300 301 301 302 302 301 299 296 292 294 298 302 301 293 283 282 280 280 291 288 289 288 289 280 287 281 283 285 282 279 285 286 288 289 288 288 289 288 287 286 284 284 282 282 280 279
299 300 300 300 300 300 300 300 301 301 302 301 298 288 285 292 301 299 296 289 288 290 290 284 286 282 288 286 284 283 282 279 276 283 286 282 281 287 289 290 289 289 290 289 285 285 283 281 281 280 280 279 278 277
298 299 299 300 300 300 300 301 301 301 300 294 288 286 291 298 296 289 286 283 284 283 286 285 287 284 289 282 280 284 279 281 276 281 280 279 278 284 289 288 289 289 288 287 286 286 286 283 280 278 278 278 277 275
297 298 299 299 299 299 299 299 300 297 295 295 292 295 293 291 287 281 277 282 282 281 284 283 284 285 285 288 281 281 279 279 278 284 277 275 281 286 286 286 285 285 283 282 282 281 280 280 279 278 277 276 275 274
296 297 298 298 299 299 299 299 300 298 298 296 290 286 285 282 274 272 271 276 278 283 284 285 283 285 286 286 281 279 275 275 283 273 277 280 284 286 285 285 283 283 282 282 280 279 277 276 278 277 276 275 274 270
297 297 297 298 298 299 299 298 298 299 295 287 283 274 277 273 281 283 281 283 285 286 287 287 282 283 283 280 280 272 279 280 271 270 277 281 284 284 284 285 284 281 280 278 278 277 276 274 272 270 268 268 268 267
296 297 297 297 298 299 299 299 298 296 290 282 282 275 274 282 283 283 285 287 288 290 288 285 284 283 278 276 279 278 274 270 275 274 277 282 284 284 283 282 279 278 276 275 274 271 269 269 269 268 267 268 268 264
297 296 295 297 298 299 299 297 296 293 287 284 283 279 283 284 285 286 287 286 289 284 287 285 280 275 274 277 275 274 275 273 275 277 282 284 283 282 281 280 278 276 274 271 270 269 269 268 267 267 265 264 263 263
295 291 296 297 298 298 298 293 290 286 284 282 281 284 284 284 283 285 286 286 288 284 278 280 273 277 280 276 276 278 277 283 284 282 282 283 282 279 278 278 277 276 274 272 270 270 267 268 269 268 266 264 265 264
291 294 297 297 298 296 293 292 286 283 280 281 280 282 283 284 284 285 284 286 286 283 283 280 282 279 271 275 272 282 283 284 284 283 281 280 280 279 279 278 277 278 277 275 271 270 269 268 269 269 270 269 266 264
294 295 296 297 295 292 286 287 287 280 281 282 283 284 284 284 285 285 286 286 285 285 283 281 277 276 276 284 283 283 282 278 282 282 283 282 280 278 278 278 280 279 278 275 276 272 271 272 274 272 272 272 270 270
296 296 296 296 296 288 284 284 290 283 280 281 283 281 281 282 284 284 285 282 283 283 279 280 280 281 283 283 281 285 284 284 282 280 280 281 282 281 280 280 279 278 278 276 275 275 274 271 272 272 270 268 272 267
295 294 296 295 290 288 285 283 283 284 283 282 284 284 283 284 284 280 279 282 280 278 280 280 280 281 283 284 286 286 284 284 282 281 280 279 281 281 280 280 279 278 277 277 274 270 270 271 269 270 264 264 266 268
292 295 291 292 285 285 283 285 283 284 282 283 283 283 279 279 277 277 281 280 280 279 282 281 280 281 282 282 283 285 285 285 285 283 280 281 279 279 280 279 278 277 277 276 273 271 271 274 271 269 270 264 265 266
294 293 287 287 281 279 279 285 280 282 277 278 281 278 277 276 278 282 277 278 278 281 283 282 282 282 280 281 281 282 285 284 283 283 281 282 281 281 280 280 279 277 277 275 277 273 273 269 268 268 267 264 265 264
291 284 279 278 280 273 280 277 282 281 280 279 277 274 276 277 280 277 275 276 277 277 277 280 280 278 279 280 279 280 282 283 282 282 282 281 280 280 280 277 277 276 277 276 276 272 271 268 267 266 265 263 262 264
277 276 277 272 279 275 273 274 276 277 273 276 274 272 274 278 273 272 273 278 275 277 275 275 279 276 277 274 276 279 280 281 281 280 280 281 280 278 277 277 276 276 278 276 274 271 266 269 265 265 265 265 270 264
270 273 274 275 274 275 276 271 271 272 273 271 272 275 276 273 270 270 276 278 281 279 281 281 280 277 278 280 279 278 279 281 281 279 279 280 279 277 276 275 274 273 275 276 274 272 271 270 266 269 266 265 264 263
270 272 279 282 281 281 276 277 280 275 271 269 271 271 271 267 268 274 278 278 277 277 277 280 278 278 279 280 280 280 280 280 279 276 277 278 278 277 278 275 272 273 276 276 273 273 271 269 268 268 267 267 265 264
276 277 269 274 275 279 272 273 272 271 274 278 276 269 269 270 273 279 280 281 277 279 278 278 277 278 276 277 280 277 278 279 277 276 275 276 276 274 272 275 276 276 274 271 270 275 272 270 270 267 269 269 264 263
274 279 276 268 271 274 273 273 274 276 278 277 272 271 273 279 281 280 280 277 277 276 277 277 279 280 278 274 276 275 274 274 272 268 264 264 266 270 271 274 274 273 271 271 273 271 271 269 270 268 268 267 265 263
277 280 274 270 267 270 273 278 279 279 275 276 276 277 276 278 278 281 281 281 281 281 281 280 280 279 277 277 274 273 270 273 273 270 269 270 269 272 269 273 272 269 270 270 268 268 271 268 269 267 266 264 262 262
279 279 278 274 272 277 277 278 278 278 277 277 276 278 277 277 278 278 276 277 280 281 281 279 278 279 278 277 276 275 273 274 278 276 276 276 276 273 272 272 272 272 271 269 267 265 264 263 264 264 263 261 259 259
277 277 276 273 274 276 276 276 277 278 277 277 275 279 277 277 276 274 274 275 277 277 278 278 278 278 280 280 280 277 275 275 273 274 274 274 275 275 275 274 274 274 273 270 268 266 265 264 265 266 264 261 260 258
277 277 277 276 274 274 276 276 273 275 276 275 277 278 278 275 272 270 270 270 271 270 272 273 277 279 280 279 278 279 277 276 275 277 276 276 276 275 275 274 273 274 272 270 268 267 265 266 264 263 261 259 258 256
Wind_Speed
27 28 28 30 33 33 32 31 30 29 29 27 26 24 23 22 18 11 3 7 4 1 6 8 3 7 8 9 9 7 7 3 5 5 5 5 4 7 5 8 8 7 6 3 2 1 6 11 6 5 5 5 8 7
29 30 31 35 34 32 34 36 34 32 31 30 28 26 25 21 20 20 2 1 3 3 2 12 4 6 5 5 8 5 5 5 6 4 1 2 1 3 7 3 1 0 8 6 7 6 2 9 11 6 5 8 5 7
32 35 33 29 26 27 29 28 36 33 34 32 30 28 24 22 21 19 3 4 1 4 3 4 5 6 0 5 8 7 3 6 3 4 4 2 2 4 4 3 4 3 4 4 4 1 9 10 9 9 8 8 6 6
33 30 29 31 30 30 29 30 29 31 35 33 31 28 25 24 22 20 5 4 2 4 2 3 4 6 8 9 6 6 6 2 6 4 3 3 3 2 1 6 5 6 6 6 2 2 8 8 8 11 8 6 4 10
31 34 33 29 28 26 29 30 32 31 32 32 31 29 27 25 25 11 3 3 2 3 3 2 5 8 3 9 9 7 7 6 4 3 3 1 1 5 2 4 1 5 6 5 5 7 6 6 8 11 8 5 3 8
32 35 32 28 33 37 36 34 30 29 32 32 32 30 28 29 27 7 4 2 5 4 3 3 5 4 5 8 9 8 5 4 4 4 2 2 2 4 3 2 3 8 8 7 4 8 13 12 10 10 6 7 10 11
23 4 15 19 25 31 37 39 35 32 31 33 31 30 31 33 12 4 4 7 9 5 4 4 2 4 3 4 3 4 4 3 5 2 3 3 2 4 3 3 6 11 15 15 14 13 9 12 6 10 13 9 13 10
14 18 21 23 27 31 36 39 37 35 33 33 33 32 32 27 9 4 4 18 12 5 4 4 1 3 3 3 4 2 4 4 5 2 3 3 3 3 3 4 8 14 14 12 8 8 10 12 12 12 10 7 9 8
19 27 29 30 34 38 43 43 40 37 37 37 36 34 15 3 3 2 4 10 3 4 4 3 5 5 1 2 4 5 4 4 2 2 2 5 1 1 6 7 12 9 8 10 12 13 11 10 9 9 9 8 10 9
26 35 35 37 39 42 43 43 41 42 42 40 19 6 4 2 14 6 7 4 4 2 2 3 3 5 5 3 2 3 1 3 2 4 2 4 1 4 7 8 9 9 12 11 11 9 9 9 8 9 10 9 8 9
31 36 39 41 44 45 45 45 45 43 34 6 4 3 5 6 4 3 4 3 2 2 3 2 9 10 2 4 3 2 3 2 3 4 5 2 1 3 8 10 11 12 12 11 11 8 12 10 10 11 9 10 10 10
29 34 37 38 39 41 42 40 34 12 2 8 13 13 4 3 2 5 3 1 3 5 3 9 8 5 3 5 4 1 3 2 3 2 4 2 3 9 13 12 10 11 15 15 14 14 13 13 11 9 9 10 9 9
30 28 27 27 27 26 25 22 10 26 29 10 6 5 3 1 3 7 6 1 4 4 7 9 7 4 4 4 3 4 4 2 3 3 4 3 7 11 12 11 12 11 13 13 13 13 13 12 12 12 10 8 9 7
23 25 27 21 17 16 12 11 8 7 7 5 5 6 3 2 2 1 2 6 3 11 12 9 3 4 3 4 3 6 1 4 2 2 5 5 11 11 10 10 11 9 10 12 13 12 11 11 9 7 6 6 7 6
24 21 17 16 16 15 21 19 11 5 4 5 5 5 2 2 3 3 2 9 12 10 7 5 4 5 2 4 2 4 3 2 5 5 4 6 11 12 10 10 11 10 9 10 9 8 8 8 7 6 5 6 6 5
12 14 10 13 12 14 10 8 8 4 5 5 7 3 1 1 7 8 11 10 4 4 4 4 4 4 1 5 4 5 7 5 3 2 6 10 12 9 10 12 11 9 9 9 8 7 7 7 7 7 5 5 4 5
15 5 10 9 12 14 12 6 5 7 5 5 4 4 3 4 5 3 3 2 3 5 2 3 5 3 3 3 2 2 3 4 7 5 4 9 11 11 12 12 11 11 10 8 7 6 5 6 7 5 5 4 4 4
5 6 14 12 4 6 4 5 5 6 7 4 4 4 3 4 2 3 2 3 4 2 3 2 4 4 4 4 1 3 3 5 7 7 7 9 11 10 11 12 10 11 11 9 7 6 6 6 6 5 6 6 4 3
6 9 14 8 5 5 5 5 5 6 5 2 3 3 3 2 2 1 3 5 2 1 4 3 6 3 2 3 6 6 4 3 5 5 6 8 10 10 10 10 11 10 10 8 9 5 4 5 4 5 4 5 4 3
9 16 15 15 8 5 6 4 4 5 4 1 2 3 3 2 3 3 5 4 3 3 6 5 3 2 2 3 3 6 5 7 7 7 5 5 7 10 10 9 7 9 8 6 5 5 4 2 1 4 3 3 4 2
8 8 11 6 5 7 5 3 5 4 3 3 0 0 2 1 2 3 3 2 5 4 4 3 3 3 5 4 5 6 8 7 8 5 6 7 6 7 7 7 9 7 6 5 5 4 5 4 4 4 4 2 4 4
3 12 4 6 5 5 5 5 4 2 4 2 1 2 2 2 2 3 3 5 4 2 3 3 2 3 3 4 4 4 3 5 4 7 7 9 7 7 7 7 7 6 6 5 5 5 3 4 5 4 5 3 3 4
7 6 5 5 7 6 2 2 4 2 4 2 2 3 2 2 2 2 4 3 3 2 3 4 4 6 6 2 3 3 2 4 5 6 7 6 6 5 6 7 6 6 6 3 5 5 6 5 5 5 4 3 3 2
7 6 5 4 5 2 1 4 3 3 3 3 3 3 2 1 3 4 3 2 2 3 3 6 5 5 4 5 4 4 3 2 4 4 4 7 6 6 6 5 4 4 4 5 6 6 6 5 5 4 3 2 3 3
8 7 5 5 2 4 4 2 3 4 3 2 4 2 1 1 3 3 2 2 2 3 3 3 2 3 3 3 2 2 3 2 4 5 1 3 5 5 4 3 3 3 5 7 7 6 4 5 4 4 4 4 5 4
7 4 4 1 2 4 2 3 2 3 3 3 2 1 0 3 3 2 2 3 4 3 4 4 3 2 2 2 4 3 2 1 3 3 1 3 5 6 6 6 5 1 2 6 8 7 6 6 4 6 5 5 6 4
4 3 2 2 1 4 4 3 2 4 3 4 3 3 3 4 2 2 1 3 3 1 3 3 3 3 4 4 4 4 4 3 2 3 3 4 2 3 5 7 7 4 4 6 5 7 7 6 6 6 6 4 4 4
1 2 2 4 3 2 4 2 2 2 2 2 4 2 7 7 3 1 2 2 3 4 4 4 3 4 3 4 6 4 4 6 7 7 6 6 5 4 4 4 5 10 6 5 4 6 6 6 6 5 6 7 4 3
2 1 4 4 3 2 2 1 1 3 3 2 4 2 2 3 2 2 2 1 3 4 3 4 4 5 5 4 3 3 4 5 6 5 5 3 2 1 3 5 6 6 5 6 9 7 7 5 6 6 7 7 4 4
1 2 2 2 2 1 2 3 2 3 3 1 0 2 3 3 1 1 3 3 4 4 3 4 4 3 4 4 3 1 1 2 3 4 5 5 5 6 4 4 5 4 5 7 7 5 8 7 8 6 6 4 3 3
1 1 2 1 2 3 3 2 2 1 2 3 3 2 3 3 2 3 3 4 3 2 2 4 4 4 4 4 4 5 4 3 3 3 3 3 8 8 7 6 6 6 6 7 6 4 4 4 4 5 6 7 5 5
3 3 1 2 3 3 2 2 3 2 3 3 2 2 2 3 3 2 3 4 2 1 0 1 2 4 4 4 3 4 4 5 4 4 6 6 7 7 7 6 7 7 8 8 6 5 5 5 4 6 7 8 7 7
1 2 3 2 3 4 3 4 3 3 3 4 3 3 2 1 2 2 1 3 2 2 3 5 5 3 2 2 3 5 5 5 7 6 7 8 10 9 6 5 4 6 9 7 5 6 5 8 8 9 8 8 7 7
Wind_Direction
267 266 262 257 253 247 242 234 225 218 215 215 212 212 209 208 197 177 175 193 252 284 304 315 286 141 129 155 149 191 85 316 109 156 170 220 149 197 110 168 169 155 154 175 138 57 272 142 109 152 173 85 108 89
270 269 267 262 252 239 235 229 224 214 211 210 207 203 203 197 192 180 177 128 120 108 292 287 137 253 136 173 134 152 115 157 162 138 158 138 24 108 136 158 98 162 171 175 154 210 66 63 102 96 127 123 110 108
273 270 264 253 243 232 224 224 212 211 204 198 196 198 194 196 188 178 120 121 190 75 293 11 11 336 172 240 141 130 82 167 126 153 157 171 102 113 122 192 106 192 134 118 88 194 109 108 92 79 93 115 124 137
275 269 262 254 242 229 218 207 198 194 194 191 190 189 185 188 184 174 173 131 93 141 74 360 297 322 336 125 103 130 151 70 125 84 91 121 116 65 199 163 134 190 126 141 116 50 110 122 112 110 88 88 106 90
280 271 261 248 232 210 195 195 192 188 186 181 179 178 179 179 175 156 125 164 138 142 118 79 356 325 345 142 111 115 116 111 95 63 69 185 95 67 348 78 109 170 165 143 207 186 136 121 125 114 120 133 101 75
285 276 260 231 213 203 198 188 179 175 174 173 172 173 173 170 154 139 131 277 199 93 85 90 316 313 355 79 103 108 108 90 93 117 136 61 45 103 95 131 38 83 77 131 124 108 110 125 114 121 137 98 79 82
317 139 130 143 155 167 177 178 169 164 159 160 162 163 164 158 148 143 186 155 151 203 102 92 52 263 170 96 57 59 49 75 99 88 74 112 28 76 90 118 107 96 93 99 105 110 111 129 149 120 103 94 95 93
27 106 112 121 128 141 145 145 147 150 151 152 151 149 147 143 68 343 62 151 175 77 98 107 95 44 13 73 71 57 58 38 10 121 38 97 8 66 85 112 96 102 101 87 83 97 106 104 97 107 120 128 107 94
62 99 101 111 120 124 131 136 140 141 138 137 137 136 121 99 91 75 241 177 183 121 132 130 136 149 77 95 74 28 74 48 315 78 179 99 108 200 160 120 113 118 115 121 104 105 110 111 109 105 97 85 105 97
64 91 96 106 116 123 129 133 133 131 129 123 118 69 93 192 149 146 20 34 20 313 133 123 111 123 115 98 68 91 58 162 100 245 81 81 4 77 59 101 126 121 130 124 120 116 101 98 103 97 95 90 92 89
65 86 93 101 108 113 117 121 124 123 122 107 102 98 102 87 84 126 150 136 184 96 76 104 139 126 74 99 140 151 178 172 119 230 123 175 148 163 93 82 81 82 82 78 84 94 127 127 119 112 103 92 88 86
70 76 87 93 100 107 111 114 118 116 142 135 109 107 87 111 83 111 178 358 142 146 106 135 138 134 108 99 98 313 128 52 125 147 84 144 209 128 105 97 86 83 89 84 82 86 84 87 99 105 96 98 96 101
80 78 83 97 102 109 123 150 161 125 112 113 64 76 115 230 81 134 175 207 120 118 139 141 126 126 63 61 59 81 94 189 95 61 180 169 141 117 117 110 97 97 98 102 97 85 77 70 84 97 99 107 110 96
70 79 87 88 85 80 90 94 142 63 58 66 70 56 78 18 81 2 175 137 164 122 135 134 100 113 119 73 151 81 245 102 93 143 184 164 139 127 120 120 118 116 113 110 109 103 96 97 92 87 101 113 117 118
62 49 53 49 56 64 72 66 61 64 62 60 46 65 50 281 266 256 261 101 116 125 121 97 61 84 85 102 101 103 84 187 199 206 174 143 131 127 129 119 114 112 114 109 110 108 113 115 113 101 103 109 111 118
87 61 20 36 46 55 65 72 42 53 55 56 39 57 305 85 64 80 102 109 104 113 78 71 112 84 103 133 96 183 152 187 210 132 123 122 127 127 122 123 121 114 111 113 115 125 127 127 134 138 117 118 132 133
60 40 349 56 57 45 42 67 49 48 57 51 29 355 23 61 65 47 40 4 323 75 127 108 75 175 121 90 118 51 112 112 114 101 96 123 127 119 120 121 123 122 120 120 122 127 135 131 126 125 136 209 173 171
53 7 24 27 60 40 27 49 68 65 57 17 47 16 39 22 40 36 336 332 57 61 61 138 130 82 138 127 142 121 96 93 80 84 94 103 110 118 125 127 124 127 132 137 137 137 132 143 161 186 164 171 163 194
40 22 19 35 86 97 66 30 69 79 49 14 360 2 32 31 9 301 356 337 34 57 80 50 61 67 81 51 113 119 116 104 111 86 97 110 111 118 122 123 125 131 135 140 146 153 161 177 197 159 164 159 178 196
23 20 9 19 32 73 67 24 56 75 59 43 8 21 52 31 321 349 341 346 31 68 38 44 51 44 51 17 96 122 108 110 119 118 110 115 125 130 134 135 137 137 138 151 157 141 141 153 86 101 108 106 129 126
22 345 352 28 44 51 78 54 50 105 102 70 179 61 71 349 19 7 338 315 53 33 71 39 48 45 38 28 64 105 117 138 153 153 151 143 143 136 139 137 139 146 157 164 145 167 158 169 160 138 126 133 128 139
333 332 49 31 68 55 62 9 106 121 72 119 83 77 75 54 15 338 287 49 62 35 11 94 71 60 50 37 25 51 134 144 138 124 117 133 147 156 161 154 154 160 165 165 161 162 165 137 130 133 116 156 129 132
354 25 34 34 66 52 330 3 64 56 99 161 93 79 42 49 278 311 70 77 86 24 99 106 89 66 98 84 19 21 108 116 114 132 149 154 146 153 146 160 160 161 167 167 147 141 131 135 129 116 122 150 140 143
36 54 46 54 65 108 18 18 37 54 49 65 82 67 36 28 309 47 74 75 98 137 118 138 133 121 117 138 144 164 163 64 111 116 149 144 152 156 156 156 145 152 150 138 125 124 137 134 134 133 150 140 126 123
63 355 60 29 10 79 78 53 13 63 86 97 83 66 315 24 66 66 134 125 149 153 142 189 201 192 154 178 98 116 4 49 135 144 140 126 117 112 112 113 126 148 135 130 136 142 141 139 144 153 163 156 164 147
66 320 56 81 306 99 146 104 127 134 113 79 84 133 53 93 77 170 154 162 158 157 166 171 180 157 325 118 134 140 177 40 97 104 121 136 149 152 152 153 143 307 129 136 142 149 148 156 160 148 129 123 129 118
64 17 6 329 339 80 50 32 47 93 101 139 171 150 106 97 178 210 125 16 107 143 128 143 153 148 128 103 83 86 92 88 101 151 107 72 64 114 150 159 161 186 136 135 142 144 151 159 157 157 165 151 152 148
117 41 120 284 37 359 118 95 123 142 173 119 94 129 148 173 174 49 82 68 116 105 88 53 45 97 108 122 123 106 88 100 91 89 77 53 42 33 48 100 124 122 117 116 117 132 145 151 153 157 142 143 143 116
41 354 77 18 352 39 66 92 143 43 337 133 129 151 114 47 24 94 114 156 94 88 96 105 82 84 75 52 60 100 127 135 132 132 132 148 107 21 15 87 100 99 95 90 84 94 120 131 139 132 125 133 144 116
183 351 72 113 94 54 73 359 47 8 5 36 71 94 85 91 33 81 127 150 163 177 174 149 157 155 154 154 148 167 269 166 158 144 168 185 187 151 135 124 116 105 104 103 101 90 80 85 91 85 92 91 84 97
33 273 280 195 115 55 55 60 79 83 343 47 4 38 89 119 110 31 43 5 360 50 107 142 157 173 166 190 189 179 203 221 198 171 173 161 144 153 152 139 138 133 129 124 120 115 117 104 120 128 124 112 109 98
194 235 250 154 115 104 155 242 178 168 148 163 120 91 103 170 191 93 10 349 344 341 12 3 177 194 194 189 183 167 167 139 145 135 126 126 138 140 140 138 144 145 142 140 144 145 150 152 153 140 127 126 111 108
323 8 0 135 140 181 166 197 194 168 183 200 173 169 187 154 155 123 6 36 48 18 33 8 357 355 20 129 141 137 119 126 131 130 135 128 129 130 127 125 115 128 136 144 135 138 139 114 102 103 109 116 108 100